Weather History for KRAL - January, 2013

Change the Weather History Date:

Wednesday, January 16, 2013

  Actual Average Record
Temperature  
Mean Temperature 54 °F 55 °F  
Max Temperature 72 °F 67 °F 86 °F (1961)
Min Temperature 35 °F 43 °F 28 °F (1935)
Degree Days  
Heating Degree Days 11 10  
Month to date heating degree days 226 164  
Since 1 July heating degree days 669 690  
Cooling Degree Days 0 0  
Month to date cooling degree days 0 0  
Year to date cooling degree days 0 0  
Growing Degree Days 5 (Base 50)    
Moisture  
Dew Point 21 °F    
Average Humidity 34    
Maximum Humidity 54    
Minimum Humidity 13    
Precipitation  
Precipitation 0.00 in 0.10 in 2.26 in (1916)
Month to date precipitation 0.03 1.83  
Year to date precipitation 0.03 1.83  
Since 1 July precipitation 1.94 5.04  
Snow  
Snow 0.00 in - - ()
Month to date snowfall 0.0  
Year to date snowfall 0.0  
Since 1 July snowfall 0.0  
Snow Depth 0.00 in    
Sea Level Pressure  
Sea Level Pressure 30.24 in    
Wind  
Wind Speed 6 mph (NE)    
Max Wind Speed 20 mph    
Max Gust Speed 30 mph    
Visibility 10 miles    
Events      
T = Trace of Precipitation, MM = Missing Value Source: NWS Daily Summary

Daily Weather History Graph

Daily Weather History Graph

Search for Another Location

Airport or City:

Trip Planner

Search our weather history database for the weather conditions in past years. The results will help you decide how hot, cold, wet, or windy it might be!

Date:

Astronomy

Jan. 16, 2013 Rise Set
Actual Time 6:54 AM PST 5:05 PM PST
Civil Twilight 6:27 AM PST 5:32 PM PST
Nautical Twilight 5:56 AM PST 6:02 PM PST
Astronomical Twilight 5:26 AM PST 6:32 PM PST
Moon 9:50 AM PST (1/16) 10:42 PM PST (1/16)
Length of Visible Light 11h 04m
Length of Day
10h 10m
Waxing Crescent, 29% of the Moon is Illuminated
Jan 16
Waxing Crescent
Jan 18
First Quarter
Jan 26
Full
Feb 3
Last Quarter
Feb 9
New

Hourly Weather History & Observations

Time (PST) Temp. Windchill Dew Point Humidity Pressure Visibility Wind Dir Wind Speed Gust Speed Precip Events Conditions
12:53 AM 45.0 °F 42.6 °F 21.0 °F 39% 30.31 in 10.0 mi NNE 4.6 mph - N/A   Clear
1:53 AM 44.1 °F - 21.9 °F 42% 30.32 in 10.0 mi Calm Calm - N/A   Clear
2:53 AM 41.0 °F 34.7 °F 23.0 °F 49% 30.32 in 10.0 mi NNW 10.4 mph 16.1 mph N/A   Clear
3:53 AM 42.1 °F - 24.1 °F 49% 30.32 in 10.0 mi Calm Calm - N/A   Clear
4:53 AM 39.0 °F 36.8 °F 25.0 °F 57% 30.31 in 10.0 mi Variable 3.5 mph - N/A   Clear
5:53 AM 41.0 °F 36.4 °F 25.0 °F 53% 30.30 in 10.0 mi NE 6.9 mph - N/A   Clear
6:53 AM 39.9 °F 37.8 °F 25.0 °F 55% 30.31 in 10.0 mi NE 3.5 mph - N/A   Scattered Clouds
7:53 AM 45.0 °F 41.8 °F 26.1 °F 48% 30.32 in 10.0 mi ENE 5.8 mph - N/A   Clear
8:53 AM 52.0 °F - 28.0 °F 40% 30.33 in 10.0 mi Calm Calm - N/A   Scattered Clouds
9:53 AM 61.0 °F - 27.0 °F 27% 30.31 in 10.0 mi East 8.1 mph - N/A   Partly Cloudy
10:53 AM 64.9 °F - 21.9 °F 19% 30.27 in 10.0 mi SE 4.6 mph - N/A   Clear
12:53 PM 71.1 °F - 19.9 °F 14% 30.17 in 10.0 mi NNE 8.1 mph 19.6 mph N/A   Clear
1:53 PM 71.1 °F - 19.0 °F 14% 30.15 in 10.0 mi NNE 11.5 mph 26.5 mph N/A   Clear
2:53 PM 71.1 °F - 18.0 °F 13% 30.15 in 10.0 mi NNE 12.7 mph 24.2 mph N/A   Clear
3:53 PM 71.1 °F - 17.1 °F 13% 30.14 in 10.0 mi NNE 11.5 mph 23.0 mph N/A   Clear
4:53 PM 68.0 °F - 16.0 °F 14% 30.16 in 10.0 mi NNE 10.4 mph 16.1 mph N/A   Clear
5:53 PM 66.0 °F - 15.1 °F 14% 30.16 in 10.0 mi NNE 9.2 mph 16.1 mph N/A   Clear
6:53 PM 64.0 °F - 16.0 °F 16% 30.17 in 10.0 mi Variable 6.9 mph - N/A   Clear
7:53 PM 62.1 °F - 17.1 °F 18% 30.18 in 10.0 mi ENE 5.8 mph - N/A   Clear
8:53 PM 55.9 °F - 21.0 °F 26% 30.17 in 10.0 mi East 3.5 mph - N/A   Clear
9:53 PM 53.1 °F - 21.9 °F 30% 30.16 in 10.0 mi East 4.6 mph - N/A   Clear
10:53 PM 53.1 °F - 21.9 °F 30% 30.15 in 10.0 mi Calm Calm - N/A   Clear